TimeCST,TemperatureF,Dew PointF,Humidity,Sea Level PressureIn,VisibilityMPH,Wind Direction,Wind SpeedMPH,Gust SpeedMPH,PrecipitationIn,Events,Conditions,WindDirDegrees,DateUTC
12:15 AM,39.2,19.4,45,29.79,10.0,NW,18.4,-,N/A,,Clear,310,2014-01-13 06:15:00
12:35 AM,37.4,19.4,48,29.80,10.0,NW,17.3,23.0,N/A,,Clear,310,2014-01-13 06:35:00
12:55 AM,37.4,19.4,48,29.81,10.0,NW,19.6,-,N/A,,Clear,310,2014-01-13 06:55:00
1:15 AM,37.4,21.2,52,29.82,10.0,NW,17.3,-,N/A,,Clear,320,2014-01-13 07:15:00
1:35 AM,37.4,21.2,52,29.83,10.0,NW,17.3,-,N/A,,Clear,320,2014-01-13 07:35:00
1:55 AM,37.4,21.2,52,29.83,10.0,NW,15.0,-,N/A,,Clear,310,2014-01-13 07:55:00
2:15 AM,37.4,21.2,52,29.85,10.0,NW,13.8,19.6,N/A,,Clear,310,2014-01-13 08:15:00
2:35 AM,35.6,21.2,56,29.85,10.0,NW,15.0,-,N/A,,Clear,310,2014-01-13 08:35:00
2:55 AM,35.6,21.2,56,29.86,10.0,NW,16.1,-,N/A,,Clear,310,2014-01-13 08:55:00
3:15 AM,35.6,21.2,56,29.87,10.0,NW,18.4,-,N/A,,Clear,310,2014-01-13 09:15:00
3:35 AM,33.8,21.2,60,29.88,10.0,WNW,16.1,-,N/A,,Clear,300,2014-01-13 09:35:00
3:55 AM,33.8,21.2,60,29.88,10.0,WNW,12.7,-,N/A,,Clear,300,2014-01-13 09:55:00
4:15 AM,32.0,19.4,60,29.89,10.0,WNW,13.8,-,N/A,,Clear,300,2014-01-13 10:15:00
4:35 AM,30.2,19.4,64,29.90,10.0,WNW,13.8,-,N/A,,Clear,300,2014-01-13 10:35:00
4:55 AM,30.2,19.4,64,29.91,10.0,WNW,11.5,-,N/A,,Clear,300,2014-01-13 10:55:00
5:15 AM,30.2,19.4,64,29.92,10.0,WNW,11.5,-,N/A,,Clear,300,2014-01-13 11:15:00
5:35 AM,30.2,19.4,64,29.91,10.0,WNW,10.4,-,N/A,,Clear,300,2014-01-13 11:35:00
5:55 AM,30.2,19.4,64,29.91,10.0,WNW,10.4,-,N/A,,Clear,300,2014-01-13 11:55:00
6:15 AM,30.2,19.4,64,29.92,10.0,WNW,9.2,-,N/A,,Clear,300,2014-01-13 12:15:00
6:35 AM,28.4,19.4,69,29.92,10.0,NW,8.1,-,N/A,,Clear,310,2014-01-13 12:35:00
6:55 AM,28.4,19.4,69,29.93,10.0,WNW,6.9,-,N/A,,Clear,300,2014-01-13 12:55:00
7:15 AM,28.4,19.4,69,29.93,10.0,NW,8.1,-,N/A,,Clear,310,2014-01-13 13:15:00
7:35 AM,28.4,19.4,69,29.94,10.0,WNW,10.4,-,N/A,,Clear,300,2014-01-13 13:35:00
7:55 AM,30.2,19.4,64,29.94,10.0,WNW,10.4,-,N/A,,Clear,300,2014-01-13 13:55:00
8:15 AM,28.4,17.6,64,29.95,10.0,WNW,9.2,-,N/A,,Clear,300,2014-01-13 14:15:00
8:35 AM,28.4,19.4,69,29.95,10.0,WNW,12.7,-,N/A,,Clear,290,2014-01-13 14:35:00
8:55 AM,30.2,19.4,64,29.96,10.0,WNW,10.4,-,N/A,,Clear,290,2014-01-13 14:55:00
9:15 AM,33.8,19.4,56,29.97,10.0,WNW,12.7,-,N/A,,Clear,290,2014-01-13 15:15:00
9:35 AM,33.8,19.4,56,29.97,10.0,WNW,12.7,-,N/A,,Clear,290,2014-01-13 15:35:00
9:55 AM,35.6,19.4,52,29.97,10.0,WNW,16.1,-,N/A,,Clear,300,2014-01-13 15:55:00
10:15 AM,37.4,19.4,48,29.97,10.0,WNW,11.5,16.1,N/A,,Clear,300,2014-01-13 16:15:00
10:35 AM,39.2,21.2,49,29.97,10.0,WNW,12.7,-,N/A,,Clear,300,2014-01-13 16:35:00
10:55 AM,42.8,21.2,42,29.97,10.0,WNW,13.8,-,N/A,,Clear,300,2014-01-13 16:55:00
11:15 AM,44.6,21.2,39,29.97,10.0,WNW,15.0,-,N/A,,Clear,300,2014-01-13 17:15:00
11:35 AM,46.4,21.2,37,29.96,10.0,West,10.4,-,N/A,,Clear,280,2014-01-13 17:35:00
11:55 AM,46.4,21.2,37,29.95,10.0,West,13.8,-,N/A,,Clear,260,2014-01-13 17:55:00
12:15 PM,46.4,21.2,37,29.93,10.0,West,12.7,19.6,N/A,,Clear,260,2014-01-13 18:15:00
12:35 PM,48.2,21.2,34,29.92,10.0,West,11.5,18.4,N/A,,Clear,280,2014-01-13 18:35:00
12:55 PM,51.8,19.4,28,29.90,10.0,WNW,20.7,26.5,N/A,,Clear,290,2014-01-13 18:55:00
1:15 PM,51.8,19.4,28,29.89,10.0,WNW,16.1,28.8,N/A,,Clear,290,2014-01-13 19:15:00
1:35 PM,51.8,19.4,28,29.88,10.0,West,16.1,24.2,N/A,,Clear,280,2014-01-13 19:35:00
1:55 PM,51.8,17.6,26,29.87,10.0,WNW,18.4,26.5,N/A,,Clear,290,2014-01-13 19:55:00
2:15 PM,53.6,17.6,24,29.86,10.0,West,19.6,24.2,N/A,,Clear,280,2014-01-13 20:15:00
2:35 PM,53.6,17.6,24,29.85,10.0,West,18.4,29.9,N/A,,Clear,280,2014-01-13 20:35:00
2:55 PM,53.6,17.6,24,29.85,10.0,West,19.6,24.2,N/A,,Clear,270,2014-01-13 20:55:00
3:15 PM,53.6,17.6,24,29.85,10.0,West,18.4,21.9,N/A,,Clear,280,2014-01-13 21:15:00
3:35 PM,55.4,17.6,23,29.85,10.0,West,16.1,23.0,N/A,,Clear,280,2014-01-13 21:35:00
3:55 PM,55.4,17.6,23,29.85,10.0,West,17.3,24.2,N/A,,Clear,280,2014-01-13 21:55:00
4:15 PM,55.4,15.8,21,29.85,10.0,WNW,16.1,-,N/A,,Clear,300,2014-01-13 22:15:00
4:35 PM,53.6,17.6,24,29.86,10.0,WNW,12.7,-,N/A,,Clear,300,2014-01-13 22:35:00
4:55 PM,53.6,17.6,24,29.85,10.0,West,9.2,-,N/A,,Clear,280,2014-01-13 22:55:00
5:15 PM,50.0,15.8,26,29.85,10.0,West,6.9,-,N/A,,Clear,260,2014-01-13 23:15:00
5:35 PM,48.2,15.8,27,29.85,10.0,WSW,5.8,-,N/A,,Clear,250,2014-01-13 23:35:00
5:55 PM,46.4,15.8,29,29.85,10.0,WSW,5.8,-,N/A,,Clear,240,2014-01-13 23:55:00
6:15 PM,41.0,14.0,33,29.85,10.0,WSW,5.8,-,N/A,,Clear,250,2014-01-14 00:15:00
6:35 PM,39.2,15.8,39,29.85,10.0,West,5.8,-,N/A,,Clear,280,2014-01-14 00:35:00
6:55 PM,39.2,17.6,42,29.85,10.0,West,5.8,-,N/A,,Clear,280,2014-01-14 00:55:00
7:15 PM,39.2,17.6,42,29.84,10.0,WNW,9.2,-,N/A,,Clear,290,2014-01-14 01:15:00
7:35 PM,42.8,17.6,36,29.84,10.0,West,11.5,-,N/A,,Scattered Clouds,270,2014-01-14 01:35:00
7:55 PM,42.8,17.6,36,29.84,10.0,West,9.2,-,N/A,,Clear,280,2014-01-14 01:55:00
8:15 PM,41.0,17.6,39,29.84,10.0,WNW,9.2,-,N/A,,Clear,300,2014-01-14 02:15:00
8:35 PM,42.8,17.6,36,29.84,10.0,WNW,9.2,-,N/A,,Clear,300,2014-01-14 02:35:00
8:55 PM,42.8,17.6,36,29.84,10.0,West,10.4,-,N/A,,Clear,280,2014-01-14 02:55:00
9:15 PM,39.2,17.6,42,29.84,10.0,West,10.4,-,N/A,,Clear,270,2014-01-14 03:15:00
9:35 PM,39.2,17.6,42,29.84,10.0,West,13.8,-,N/A,,Clear,270,2014-01-14 03:35:00
9:55 PM,41.0,17.6,39,29.84,10.0,WNW,10.4,-,N/A,,Scattered Clouds,290,2014-01-14 03:55:00
10:15 PM,42.8,19.4,39,29.84,10.0,West,12.7,-,N/A,,Mostly Cloudy,280,2014-01-14 04:15:00
10:35 PM,44.6,19.4,37,29.85,10.0,West,13.8,-,N/A,,Mostly Cloudy,270,2014-01-14 04:35:00
10:55 PM,42.8,19.4,39,29.86,10.0,West,12.7,-,N/A,,Overcast,270,2014-01-14 04:55:00
11:15 PM,42.8,19.4,39,29.86,10.0,West,16.1,-,N/A,,Overcast,270,2014-01-14 05:15:00
11:35 PM,44.6,19.4,37,29.86,10.0,WNW,12.7,-,N/A,,Mostly Cloudy,290,2014-01-14 05:35:00
11:55 PM,44.6,19.4,37,29.85,10.0,West,15.0,-,N/A,,Mostly Cloudy,280,2014-01-14 05:55:00